C/2022 F2 ( NEOWISE )

Japanese version
Home page
Updated on December 16, 2022

---------------------------------------------------------------------

* Profile

Discovery Date March 30, 2022
Magnitude 17 mag
Discoverer James M. Bauer (Near-Earth Object Wide-field Infrared Survey Explorer)

* Orbital Elements

Epoch 2022 Aug. 9.0 TT = JDT 2459800.5
T 2022 Mar. 23.45889 TT                                 Rudenko
q   1.5850084            (2000.0)            P               Q
n   0.00842702     Peri.  200.62878     -0.52448671     +0.08153684
a  23.9158912      Node    58.69562     -0.57332171     +0.70208355
e   0.9337257      Incl.   97.29375     -0.62945683     -0.70741108
P 117
From 109 observations 2022 Mar. 30-June 28, mean residual 0".5.

* Finding Charts

* Magnitudes Graph

        m1 = 14.0 + 5 log d + 10.0 log r

---------------------------------------------------------------------

The orbital elements are published on M.P.E.C. 2022-Q139.
The charts are made with StellaNavigator Ver.10 (AstroArts).
The magnitudes graphs are made with Comet for Windows.

---------------------------------------------------------------------

Copyright(C) Seiichi Yoshida (comet@aerith.net). All rights reserved.